Time,TemperatureF,DewpointF,PressureIn,WindDirection,WindDirectionDegrees,WindSpeedMPH,WindSpeedGustMPH,Humidity,HourlyPrecipIn,Conditions,Clouds,dailyrainin,SolarRadiationWatts/m^2,SoftwareType,DateUTC
2013-02-22 00:11:00,40.3,39.0,30.15,NNW,334,1.0,5.0,96,0.09,,,0.02,0,weatherlink.com 1.10,2013-02-22 05:11:00,
2013-02-22 00:26:00,40.3,39.0,30.16,North,350,1.0,2.0,96,0.10,,,0.05,0,weatherlink.com 1.10,2013-02-22 05:26:00,
2013-02-22 00:41:00,40.4,39.0,30.14,NNW,342,3.0,7.0,96,0.12,,,0.09,0,weatherlink.com 1.10,2013-02-22 05:41:00,
2013-02-22 00:56:00,40.4,39.0,30.12,NNW,335,2.0,5.0,95,0.11,,,0.11,0,weatherlink.com 1.10,2013-02-22 05:56:00,
2013-02-22 01:11:00,40.4,39.0,30.09,NNW,334,5.0,7.0,95,0.10,,,0.12,0,weatherlink.com 1.10,2013-02-22 06:11:00,
2013-02-22 01:26:00,40.5,39.0,30.09,NNE,15,3.0,7.0,95,0.08,,,0.13,0,weatherlink.com 1.10,2013-02-22 06:26:00,
2013-02-22 01:41:00,40.6,39.0,30.09,NNW,336,2.0,11.0,95,0.05,,,0.14,0,weatherlink.com 1.10,2013-02-22 06:41:00,
2013-02-22 01:57:00,40.7,39.0,30.09,NNW,339,2.0,4.0,95,0.04,,,0.15,0,weatherlink.com 1.10,2013-02-22 06:57:00,
2013-02-22 02:12:00,40.8,40.0,30.09,NW,322,2.0,4.0,95,0.06,,,0.18,0,weatherlink.com 1.10,2013-02-22 07:12:00,
2013-02-22 02:27:00,40.7,39.0,30.10,NNW,336,1.0,3.0,95,0.08,,,0.21,0,weatherlink.com 1.10,2013-02-22 07:27:00,
2013-02-22 02:42:00,40.5,39.0,30.07,NNW,343,0.0,6.0,95,0.10,,,0.24,0,weatherlink.com 1.10,2013-02-22 07:42:00,
2013-02-22 02:57:00,40.4,39.0,30.08,NNW,342,2.0,9.0,95,0.10,,,0.25,0,weatherlink.com 1.10,2013-02-22 07:57:00,
2013-02-22 03:12:00,40.3,39.0,30.07,NNW,346,2.0,7.0,95,0.13,,,0.31,0,weatherlink.com 1.10,2013-02-22 08:12:00,
2013-02-22 03:27:00,39.9,39.0,30.06,NNW,340,3.0,9.0,95,0.14,,,0.35,0,weatherlink.com 1.10,2013-02-22 08:27:00,
2013-02-22 03:42:00,39.6,38.0,30.04,NNW,336,1.0,8.0,95,0.15,,,0.39,0,weatherlink.com 1.10,2013-02-22 08:42:00,
2013-02-22 03:57:00,39.5,38.0,30.06,NNE,28,4.0,9.0,95,0.14,,,0.39,0,weatherlink.com 1.10,2013-02-22 08:57:00,
2013-02-22 04:31:00,39.3,38.0,30.07,North,360,1.0,7.0,95,0.05,,,0.41,0,weatherlink.com 1.10,2013-02-22 09:31:00,
2013-02-22 04:42:00,39.5,38.0,30.08,NNW,328,1.0,8.0,95,0.02,,,0.41,0,weatherlink.com 1.10,2013-02-22 09:42:00,
2013-02-22 04:58:00,39.5,38.0,30.08,NNW,337,4.0,10.0,95,0.03,,,0.42,0,weatherlink.com 1.10,2013-02-22 09:58:00,
2013-02-22 05:12:00,39.4,38.0,30.09,NNW,342,4.0,6.0,95,0.03,,,0.43,0,weatherlink.com 1.10,2013-02-22 10:12:00,
2013-02-22 05:27:00,39.3,38.0,30.09,NNW,341,3.0,11.0,95,0.02,,,0.43,0,weatherlink.com 1.10,2013-02-22 10:27:00,
2013-02-22 05:42:00,39.2,38.0,30.09,North,5,2.0,9.0,95,0.02,,,0.43,0,weatherlink.com 1.10,2013-02-22 10:42:00,
2013-02-22 05:57:00,39.1,38.0,30.09,NNW,339,3.0,7.0,94,0.01,,,0.43,0,weatherlink.com 1.10,2013-02-22 10:57:00,
2013-02-22 06:12:00,39.1,37.0,30.09,NNW,335,5.0,7.0,93,0.00,,,0.43,0,weatherlink.com 1.10,2013-02-22 11:12:00,
2013-02-22 06:28:00,39.1,37.0,30.08,NNW,341,5.0,9.0,92,0.00,,,0.43,0,weatherlink.com 1.10,2013-02-22 11:28:00,
2013-02-22 06:42:00,39.4,37.0,30.08,NNW,341,4.0,6.0,91,0.00,,,0.43,0,weatherlink.com 1.10,2013-02-22 11:42:00,
2013-02-22 06:58:00,39.5,37.0,30.07,NNW,342,3.0,7.0,91,0.00,,,0.43,0,weatherlink.com 1.10,2013-02-22 11:58:00,
2013-02-22 07:12:00,39.7,37.0,30.06,NW,326,3.0,7.0,90,0.00,,,0.43,0,weatherlink.com 1.10,2013-02-22 12:12:00,
2013-02-22 07:27:00,39.8,37.0,30.07,NNW,335,2.0,6.0,90,0.00,,,0.43,0,weatherlink.com 1.10,2013-02-22 12:27:00,
2013-02-22 07:42:00,40.0,37.0,30.08,NNW,335,3.0,8.0,90,0.00,,,0.43,7,weatherlink.com 1.10,2013-02-22 12:42:00,
2013-02-22 07:57:00,40.2,38.0,30.08,NNW,327,2.0,4.0,90,0.00,,,0.43,7,weatherlink.com 1.10,2013-02-22 12:57:00,
2013-02-22 08:12:00,40.3,38.0,30.09,North,5,1.0,7.0,90,0.00,,,0.43,11,weatherlink.com 1.10,2013-02-22 13:12:00,
2013-02-22 08:27:00,40.3,38.0,30.09,NNW,334,3.0,4.0,90,0.00,,,0.43,28,weatherlink.com 1.10,2013-02-22 13:27:00,
2013-02-22 08:43:00,40.5,38.0,30.10,North,355,2.0,10.0,89,0.00,,,0.43,28,weatherlink.com 1.10,2013-02-22 13:43:00,
2013-02-22 08:58:00,40.7,38.0,30.10,North,350,3.0,7.0,89,0.00,,,0.43,40,weatherlink.com 1.10,2013-02-22 13:58:00,
2013-02-22 09:13:00,40.6,37.0,30.10,NNW,332,3.0,8.0,88,0.00,,,0.43,51,weatherlink.com 1.10,2013-02-22 14:13:00,
2013-02-22 09:28:00,40.8,38.0,30.09,NNW,333,3.0,8.0,88,0.00,,,0.43,69,weatherlink.com 1.10,2013-02-22 14:28:00,
2013-02-22 09:43:00,41.0,37.0,30.09,NNW,338,3.0,9.0,87,0.00,,,0.43,69,weatherlink.com 1.10,2013-02-22 14:43:00,
2013-02-22 09:58:00,41.1,38.0,30.09,NNW,339,2.0,5.0,87,0.00,,,0.43,47,weatherlink.com 1.10,2013-02-22 14:58:00,
2013-02-22 10:13:00,41.3,38.0,30.09,NNW,337,4.0,6.0,88,0.00,,,0.43,69,weatherlink.com 1.10,2013-02-22 15:13:00,
2013-02-22 10:28:00,41.6,38.0,30.09,NNW,331,2.0,6.0,87,0.00,,,0.43,63,weatherlink.com 1.10,2013-02-22 15:28:00,
2013-02-22 10:43:00,41.8,38.0,30.08,NNW,334,2.0,4.0,87,0.00,,,0.43,46,weatherlink.com 1.10,2013-02-22 15:43:00,
2013-02-22 10:58:00,42.2,39.0,30.09,NNW,327,2.0,6.0,87,0.00,,,0.43,76,weatherlink.com 1.10,2013-02-22 15:58:00,
2013-02-22 11:13:00,42.9,39.0,30.09,NNW,335,2.0,4.0,87,0.00,,,0.43,116,weatherlink.com 1.10,2013-02-22 16:13:00,
2013-02-22 11:28:00,43.8,40.0,30.09,NW,326,4.0,5.0,86,0.00,,,0.43,113,weatherlink.com 1.10,2013-02-22 16:28:00,
2013-02-22 11:43:00,44.4,41.0,30.09,NNW,331,1.0,5.0,86,0.00,,,0.43,100,weatherlink.com 1.10,2013-02-22 16:43:00,
2013-02-22 11:58:00,44.7,41.0,30.09,NNW,340,3.0,7.0,86,0.00,,,0.43,81,weatherlink.com 1.10,2013-02-22 16:58:00,
2013-02-22 12:13:00,45.1,41.0,30.09,NW,326,1.0,4.0,85,0.00,,,0.43,84,weatherlink.com 1.10,2013-02-22 17:13:00,
2013-02-22 12:28:00,45.2,41.0,30.09,NW,322,1.0,5.0,85,0.00,,,0.43,98,weatherlink.com 1.10,2013-02-22 17:28:00,
2013-02-22 12:43:00,45.5,41.0,30.08,NNW,340,3.0,6.0,85,0.00,,,0.43,109,weatherlink.com 1.10,2013-02-22 17:43:00,
2013-02-22 12:58:00,45.6,42.0,30.08,NNW,332,4.0,7.0,87,0.00,,,0.43,113,weatherlink.com 1.10,2013-02-22 17:58:00,
2013-02-22 13:13:00,46.0,42.0,30.07,NNW,329,2.0,5.0,85,0.00,,,0.43,114,weatherlink.com 1.10,2013-02-22 18:13:00,
2013-02-22 13:28:00,45.9,42.0,30.07,NNW,327,3.0,5.0,85,0.00,,,0.43,88,weatherlink.com 1.10,2013-02-22 18:28:00,
2013-02-22 13:43:00,45.8,42.0,30.07,WNW,291,2.0,7.0,85,0.00,,,0.43,74,weatherlink.com 1.10,2013-02-22 18:43:00,
2013-02-22 13:58:00,45.8,42.0,30.06,WNW,293,2.0,10.0,85,0.00,,,0.43,70,weatherlink.com 1.10,2013-02-22 18:58:00,
2013-02-22 14:13:00,45.9,42.0,30.05,NW,317,3.0,6.0,86,0.00,,,0.43,76,weatherlink.com 1.10,2013-02-22 19:13:00,
2013-02-22 14:28:00,46.2,42.0,30.05,WSW,239,1.0,6.0,85,0.00,,,0.43,79,weatherlink.com 1.10,2013-02-22 19:28:00,
2013-02-22 14:43:00,46.4,42.0,30.04,North,360,1.0,4.0,85,0.00,,,0.43,58,weatherlink.com 1.10,2013-02-22 19:43:00,
2013-02-22 14:58:00,46.5,43.0,30.05,NNW,331,3.0,6.0,86,0.00,,,0.43,54,weatherlink.com 1.10,2013-02-22 19:58:00,
2013-02-22 15:13:00,46.5,43.0,30.05,NNW,329,3.0,4.0,86,0.00,,,0.43,65,weatherlink.com 1.10,2013-02-22 20:13:00,
2013-02-22 15:29:00,46.7,43.0,30.05,NW,319,1.0,6.0,86,0.00,,,0.43,72,weatherlink.com 1.10,2013-02-22 20:29:00,
2013-02-22 15:43:00,47.2,43.0,30.04,NNW,338,3.0,4.0,86,0.00,,,0.43,76,weatherlink.com 1.10,2013-02-22 20:43:00,
2013-02-22 15:58:00,47.4,43.0,30.04,NNW,338,1.0,5.0,85,0.00,,,0.43,60,weatherlink.com 1.10,2013-02-22 20:58:00,
2013-02-22 16:13:00,47.7,44.0,30.04,NNW,338,1.0,5.0,86,0.00,,,0.43,47,weatherlink.com 1.10,2013-02-22 21:13:00,
2013-02-22 16:28:00,47.5,44.0,30.02,NNW,339,1.0,4.0,86,0.00,,,0.43,40,weatherlink.com 1.10,2013-02-22 21:28:00,
2013-02-22 16:43:00,47.3,43.0,30.02,NNW,340,0.0,4.0,86,0.00,,,0.43,39,weatherlink.com 1.10,2013-02-22 21:43:00,
2013-02-22 16:58:00,47.3,43.0,30.02,NNW,329,2.0,3.0,86,0.00,,,0.43,32,weatherlink.com 1.10,2013-02-22 21:58:00,
2013-02-22 17:13:00,47.3,43.0,30.03,NNW,329,0.0,2.0,86,0.00,,,0.43,23,weatherlink.com 1.10,2013-02-22 22:13:00,
2013-02-22 17:28:00,47.1,44.0,30.02,NNW,328,1.0,5.0,87,0.00,,,0.43,18,weatherlink.com 1.10,2013-02-22 22:28:00,
2013-02-22 17:43:00,46.9,43.0,30.02,NW,317,0.0,3.0,87,0.00,,,0.43,12,weatherlink.com 1.10,2013-02-22 22:43:00,
2013-02-22 17:59:00,46.8,44.0,30.02,NW,321,1.0,2.0,88,0.00,,,0.43,0,weatherlink.com 1.10,2013-02-22 22:59:00,
2013-02-22 18:28:00,46.3,43.0,30.04,NW,321,0.0,2.0,89,0.00,,,0.43,0,weatherlink.com 1.10,2013-02-22 23:28:00,
2013-02-22 18:43:00,46.3,44.0,30.05,NW,321,0.0,1.0,90,0.00,,,0.43,0,weatherlink.com 1.10,2013-02-22 23:43:00,
2013-02-22 18:58:00,46.2,44.0,30.04,NW,321,0.0,1.0,90,0.00,,,0.43,0,weatherlink.com 1.10,2013-02-22 23:58:00,
2013-02-22 19:13:00,46.2,44.0,30.04,NW,311,0.0,2.0,90,0.00,,,0.43,0,weatherlink.com 1.10,2013-02-23 00:13:00,
2013-02-22 19:28:00,46.3,44.0,30.05,NW,311,0.0,1.0,90,0.00,,,0.43,0,weatherlink.com 1.10,2013-02-23 00:28:00,
2013-02-22 19:43:00,46.3,44.0,30.05,WNW,300,0.0,2.0,90,0.00,,,0.43,0,weatherlink.com 1.10,2013-02-23 00:43:00,
2013-02-22 19:58:00,46.3,44.0,30.05,WNW,300,0.0,1.0,90,0.00,,,0.43,0,weatherlink.com 1.10,2013-02-23 00:58:00,
2013-02-22 20:13:00,46.3,44.0,30.04,West,281,1.0,3.0,90,0.00,,,0.43,0,weatherlink.com 1.10,2013-02-23 01:13:00,
2013-02-22 20:28:00,46.2,44.0,30.04,West,281,0.0,2.0,91,0.00,,,0.43,0,weatherlink.com 1.10,2013-02-23 01:28:00,
2013-02-22 20:44:00,45.9,44.0,30.04,NW,311,0.0,3.0,91,0.00,,,0.43,0,weatherlink.com 1.10,2013-02-23 01:44:00,
2013-02-22 20:59:00,45.8,43.0,30.01,NW,311,1.0,2.0,91,0.00,,,0.43,0,weatherlink.com 1.10,2013-02-23 01:59:00,
2013-02-22 21:14:00,45.7,44.0,30.01,NW,311,0.0,2.0,92,0.00,,,0.43,0,weatherlink.com 1.10,2013-02-23 02:14:00,
2013-02-22 21:29:00,45.7,44.0,30.01,NW,311,0.0,0.0,92,0.00,,,0.43,0,weatherlink.com 1.10,2013-02-23 02:29:00,
2013-02-22 21:44:00,45.6,44.0,30.02,NW,311,0.0,0.0,93,0.00,,,0.43,0,weatherlink.com 1.10,2013-02-23 02:44:00,
2013-02-22 21:59:00,45.9,44.0,30.00,NNW,328,0.0,1.0,93,0.00,,,0.43,0,weatherlink.com 1.10,2013-02-23 02:59:00,
2013-02-22 22:14:00,46.3,44.0,30.02,NNW,338,0.0,2.0,93,0.00,,,0.43,0,weatherlink.com 1.10,2013-02-23 03:14:00,
2013-02-22 22:29:00,46.2,44.0,30.03,NNW,338,0.0,2.0,93,0.00,,,0.43,0,weatherlink.com 1.10,2013-02-23 03:29:00,
2013-02-22 22:44:00,46.1,44.0,30.06,NNW,338,0.0,0.0,93,0.00,,,0.43,0,weatherlink.com 1.10,2013-02-23 03:44:00,
2013-02-22 22:59:00,45.9,44.0,30.07,NNW,338,0.0,0.0,94,0.00,,,0.43,0,weatherlink.com 1.10,2013-02-23 03:59:00,
2013-02-22 23:14:00,45.9,45.0,30.05,NNW,338,0.0,0.0,95,0.00,,,0.43,0,weatherlink.com 1.10,2013-02-23 04:14:00,
2013-02-22 23:29:00,46.0,45.0,30.04,NNW,338,0.0,0.0,95,0.02,,,0.45,0,weatherlink.com 1.10,2013-02-23 04:29:00,
2013-02-22 23:44:00,46.1,45.0,30.02,NNW,338,0.0,1.0,96,0.03,,,0.46,0,weatherlink.com 1.10,2013-02-23 04:44:00,
2013-02-22 23:59:00,46.1,45.0,30.02,NNW,327,0.0,1.0,96,0.03,,,0.46,0,weatherlink.com 1.10,2013-02-23 04:59:00,